FLT555 VNKT-VNLK

Flight info

Callsign FLT555
Flight time 0h 36m
Altitude 150
Route KIMTI
Aircraft C408/L-VGD/C

Departure

Time 2026-04-23 02:22
Airport Tribhuvan International Airport (VNKT)

Arrival

Time 2026-04-23 02:59
Airport Tenzing-Hillary Airport (VNLK)
Time Latitude Longitude Altitude Speed Heading
2026-04-23 01:59 27.70179 85.35947 4364 ft 0 kts 293°
2026-04-23 02:08 27.70179 85.35946 4375 ft 1 kts 293°
2026-04-23 02:08 27.70180 85.35945 4375 ft 1 kts 293°
2026-04-23 02:08 27.70180 85.35944 4375 ft 1 kts 293°
2026-04-23 02:08 27.70180 85.35943 4375 ft 2 kts 293°
2026-04-23 02:09 27.70175 85.35957 4362 ft 2 kts 293°
2026-04-23 02:09 27.70170 85.35970 4375 ft 2 kts 293°
2026-04-23 02:09 27.70165 85.35984 4363 ft 2 kts 293°
2026-04-23 02:10 27.70162 85.35992 4370 ft 2 kts 293°
2026-04-23 02:10 27.70161 85.35993 4368 ft 1 kts 293°
2026-04-23 02:10 27.70160 85.35997 4371 ft 1 kts 293°
2026-04-23 02:11 27.70160 85.35998 4371 ft 2 kts 293°
2026-04-23 02:12 27.70158 85.36003 4373 ft 2 kts 293°
2026-04-23 02:12 27.70153 85.36015 4361 ft 2 kts 293°
2026-04-23 02:12 27.70152 85.36018 4366 ft 2 kts 293°
2026-04-23 02:13 27.70152 85.36019 4366 ft 1 kts 293°
2026-04-23 02:15 27.70151 85.36020 4367 ft 1 kts 293°
2026-04-23 02:15 27.70151 85.36022 4368 ft 2 kts 293°
2026-04-23 02:16 27.70148 85.36028 4372 ft 2 kts 293°
2026-04-23 02:16 27.70147 85.36031 4368 ft 0 kts 293°
2026-04-23 02:19 27.70148 85.36029 4372 ft 3 kts 293°
2026-04-23 02:19 27.70115 85.35998 4374 ft 13 kts 197°
2026-04-23 02:19 27.70009 85.35954 4358 ft 20 kts 202°
2026-04-23 02:19 27.69869 85.35890 4368 ft 24 kts 202°
2026-04-23 02:20 27.69705 85.35817 4356 ft 27 kts 202°
2026-04-23 02:20 27.69524 85.35733 4359 ft 29 kts 202°
2026-04-23 02:20 27.69325 85.35645 4354 ft 32 kts 201°
2026-04-23 02:20 27.69145 85.35564 4348 ft 23 kts 197°
2026-04-23 02:21 27.69056 85.35623 4342 ft 9 kts 82°
2026-04-23 02:21 27.69109 85.35663 4347 ft 10 kts 21°
2026-04-23 02:21 27.69294 85.35745 4353 ft 50 kts 22°
2026-04-23 02:21 27.69731 85.35945 4359 ft 84 kts 22°
2026-04-23 02:22 27.70350 85.36233 4403 ft 105 kts 23°
2026-04-23 02:22 27.71051 85.36554 4537 ft 107 kts 21°
2026-04-23 02:22 27.71724 85.36845 4766 ft 106 kts 16°
2026-04-23 02:22 27.72366 85.37183 4999 ft 103 kts 34°
2026-04-23 02:23 27.72957 85.37693 5255 ft 111 kts 44°
2026-04-23 02:23 27.73457 85.38375 5511 ft 115 kts 56°
2026-04-23 02:23 27.73823 85.39199 5766 ft 120 kts 68°
2026-04-23 02:23 27.74017 85.40129 6028 ft 124 kts 82°
2026-04-23 02:24 27.74031 85.41116 6287 ft 126 kts 90°
2026-04-23 02:24 27.74034 85.42114 6547 ft 128 kts 90°
2026-04-23 02:24 27.73995 85.43113 6739 ft 127 kts 98°
2026-04-23 02:24 27.73775 85.44068 6977 ft 128 kts 110°
2026-04-23 02:25 27.73379 85.44963 7219 ft 128 kts 121°
2026-04-23 02:25 27.72823 85.45749 7454 ft 129 kts 134°
2026-04-23 02:25 27.72129 85.46385 7693 ft 128 kts 146°
2026-04-23 02:25 27.71332 85.46843 7931 ft 129 kts 158°
2026-04-23 02:26 27.70500 85.47233 8174 ft 129 kts 157°
2026-04-23 02:26 27.69672 85.47629 8443 ft 130 kts 159°
2026-04-23 02:26 27.68822 85.47984 8681 ft 130 kts 165°
2026-04-23 02:26 27.67993 85.48385 8921 ft 132 kts 156°
2026-04-23 02:27 27.67181 85.48876 9165 ft 133 kts 150°
2026-04-23 02:27 27.66403 85.49458 9414 ft 135 kts 145°
2026-04-23 02:27 27.65666 85.50128 9662 ft 137 kts 140°
2026-04-23 02:27 27.64986 85.50876 9913 ft 136 kts 134°
2026-04-23 02:28 27.64374 85.51690 10141 ft 136 kts 129°
2026-04-23 02:28 27.64215 85.51930 10200 ft 137 kts 127°
2026-04-23 02:28 27.63834 85.52568 10360 ft 137 kts 123°
2026-04-23 02:29 27.63363 85.53504 10586 ft 137 kts 117°
2026-04-23 02:29 27.62976 85.54483 10811 ft 136 kts 111°
2026-04-23 02:29 27.62674 85.55485 11037 ft 135 kts 105°
2026-04-23 02:29 27.62409 85.56497 11270 ft 134 kts 107°
2026-04-23 02:30 27.62139 85.57504 11498 ft 134 kts 106°
2026-04-23 02:30 27.61871 85.58508 11737 ft 133 kts 106°
2026-04-23 02:30 27.61605 85.59507 11974 ft 132 kts 105°
2026-04-23 02:30 27.61340 85.60499 12210 ft 132 kts 106°
2026-04-23 02:31 27.61082 85.61474 12446 ft 131 kts 106°
2026-04-23 02:31 27.60820 85.62454 12686 ft 130 kts 105°
2026-04-23 02:31 27.60560 85.63430 12933 ft 130 kts 105°
2026-04-23 02:31 27.60302 85.64400 13170 ft 129 kts 106°
2026-04-23 02:32 27.60045 85.65362 13415 ft 128 kts 105°
2026-04-23 02:32 27.59789 85.66322 13666 ft 128 kts 105°
2026-04-23 02:32 27.59534 85.67276 13910 ft 127 kts 105°
2026-04-23 02:32 27.59274 85.68223 14126 ft 125 kts 108°
2026-04-23 02:33 27.58987 85.69128 14340 ft 123 kts 109°
2026-04-23 02:33 27.58666 85.70018 14557 ft 122 kts 112°
2026-04-23 02:33 27.58318 85.70885 14780 ft 121 kts 114°
2026-04-23 02:33 27.57944 85.71734 14984 ft 123 kts 115°
2026-04-23 02:34 27.57534 85.72662 15015 ft 141 kts 116°
2026-04-23 02:34 27.57076 85.73699 15030 ft 153 kts 116°
2026-04-23 02:34 27.56586 85.74811 15024 ft 161 kts 116°
2026-04-23 02:34 27.56085 85.75948 15022 ft 163 kts 116°
2026-04-23 02:35 27.55586 85.77083 15018 ft 164 kts 115°
2026-04-23 02:35 27.55078 85.78235 15019 ft 165 kts 116°
2026-04-23 02:35 27.54564 85.79404 15017 ft 167 kts 116°
2026-04-23 02:35 27.54048 85.80577 15016 ft 168 kts 116°
2026-04-23 02:36 27.53529 85.81755 15019 ft 168 kts 116°
2026-04-23 02:36 27.53003 85.82939 14984 ft 169 kts 118°
2026-04-23 02:36 27.52462 85.84107 14975 ft 169 kts 109°
2026-04-23 02:36 27.52062 85.85352 14973 ft 169 kts 108°
2026-04-23 02:37 27.51719 85.86615 14977 ft 169 kts 105°
2026-04-23 02:37 27.51437 85.87903 14980 ft 169 kts 101°
2026-04-23 02:37 27.51221 85.89193 14984 ft 169 kts 98°
2026-04-23 02:37 27.51069 85.90511 14987 ft 169 kts 95°
2026-04-23 02:38 27.50985 85.91835 14987 ft 169 kts 91°
2026-04-23 02:38 27.50943 85.93162 14986 ft 169 kts 91°
2026-04-23 02:38 27.50895 85.94489 14985 ft 169 kts 91°
2026-04-23 02:38 27.50845 85.95790 14984 ft 168 kts 91°
2026-04-23 02:39 27.50797 85.97111 14986 ft 169 kts 91°
2026-04-23 02:39 27.50747 85.98430 14985 ft 169 kts 91°
2026-04-23 02:39 27.50698 85.99753 14985 ft 169 kts 91°
2026-04-23 02:39 27.50649 86.01070 14983 ft 168 kts 91°
2026-04-23 02:40 27.50599 86.02386 14984 ft 167 kts 91°
2026-04-23 02:40 27.50551 86.03677 14985 ft 166 kts 91°
2026-04-23 02:40 27.50502 86.04987 14984 ft 167 kts 91°
2026-04-23 02:40 27.50452 86.06299 14984 ft 168 kts 91°
2026-04-23 02:41 27.50403 86.07612 14985 ft 168 kts 91°
2026-04-23 02:41 27.50353 86.08926 14986 ft 168 kts 91°
2026-04-23 02:41 27.50303 86.10244 14987 ft 168 kts 91°
2026-04-23 02:41 27.50253 86.11564 14987 ft 169 kts 91°
2026-04-23 02:42 27.50202 86.12883 14983 ft 168 kts 91°
2026-04-23 02:42 27.50151 86.14199 14986 ft 168 kts 91°
2026-04-23 02:42 27.50101 86.15515 14987 ft 168 kts 91°
2026-04-23 02:42 27.50051 86.16818 14987 ft 169 kts 91°
2026-04-23 02:43 27.50000 86.18141 15003 ft 169 kts 92°
2026-04-23 02:43 27.49949 86.19458 15019 ft 168 kts 91°
2026-04-23 02:43 27.49899 86.20771 15020 ft 167 kts 91°
2026-04-23 02:43 27.49847 86.22078 15020 ft 167 kts 91°
2026-04-23 02:44 27.49796 86.23393 15022 ft 168 kts 91°
2026-04-23 02:44 27.49745 86.24703 15014 ft 166 kts 91°
2026-04-23 02:44 27.49694 86.26002 15011 ft 165 kts 91°
2026-04-23 02:44 27.49563 86.27283 15007 ft 165 kts 104°
2026-04-23 02:45 27.49267 86.28526 15015 ft 164 kts 103°
2026-04-23 02:45 27.48990 86.29759 15012 ft 165 kts 103°
2026-04-23 02:45 27.48703 86.31019 15019 ft 167 kts 103°
2026-04-23 02:45 27.48419 86.32291 15022 ft 168 kts 103°
2026-04-23 02:46 27.48130 86.33565 15026 ft 168 kts 103°
2026-04-23 02:46 27.47839 86.34845 15044 ft 170 kts 103°
2026-04-23 02:46 27.47547 86.36135 15049 ft 170 kts 103°
2026-04-23 02:46 27.47257 86.37423 15039 ft 170 kts 103°
2026-04-23 02:47 27.46963 86.38712 15045 ft 170 kts 103°
2026-04-23 02:47 27.46671 86.39999 15048 ft 169 kts 103°
2026-04-23 02:47 27.46377 86.41295 15001 ft 171 kts 103°
2026-04-23 02:47 27.46085 86.42582 14951 ft 168 kts 103°
2026-04-23 02:48 27.45800 86.43840 14901 ft 164 kts 103°
2026-04-23 02:48 27.45517 86.45087 14847 ft 164 kts 103°
2026-04-23 02:48 27.45232 86.46337 14790 ft 164 kts 103°
2026-04-23 02:48 27.44951 86.47575 14753 ft 163 kts 103°
2026-04-23 02:49 27.44672 86.48802 14707 ft 164 kts 103°
2026-04-23 02:49 27.44389 86.50045 14688 ft 164 kts 103°
2026-04-23 02:49 27.44106 86.51283 14640 ft 163 kts 103°
2026-04-23 02:49 27.43827 86.52514 14591 ft 162 kts 103°
2026-04-23 02:50 27.43544 86.53755 14490 ft 165 kts 104°
2026-04-23 02:50 27.43253 86.55026 14345 ft 170 kts 103°
2026-04-23 02:50 27.42957 86.56330 14138 ft 174 kts 103°
2026-04-23 02:50 27.42659 86.57632 13986 ft 172 kts 104°
2026-04-23 02:51 27.42364 86.58923 13818 ft 169 kts 104°
2026-04-23 02:51 27.42072 86.60201 13640 ft 169 kts 103°
2026-04-23 02:51 27.41781 86.61478 13460 ft 168 kts 104°
2026-04-23 02:51 27.41598 86.62764 13264 ft 166 kts 86°
2026-04-23 02:52 27.41912 86.63998 13076 ft 164 kts 60°
2026-04-23 02:52 27.42648 86.64952 12896 ft 160 kts 35°
2026-04-23 02:52 27.43638 86.65462 12775 ft 159 kts 14°
2026-04-23 02:52 27.44701 86.65778 12603 ft 157 kts 15°
2026-04-23 02:53 27.45752 86.66097 12430 ft 156 kts 15°
2026-04-23 02:53 27.46818 86.66322 12256 ft 157 kts
2026-04-23 02:53 27.47908 86.66422 12089 ft 157 kts
2026-04-23 02:53 27.48992 86.66571 11922 ft 156 kts
2026-04-23 02:54 27.50069 86.66762 11760 ft 157 kts
2026-04-23 02:54 27.51144 86.66957 11590 ft 155 kts
2026-04-23 02:54 27.52217 86.67150 11429 ft 156 kts
2026-04-23 02:54 27.53287 86.67347 11259 ft 155 kts
2026-04-23 02:55 27.54346 86.67541 11095 ft 154 kts
2026-04-23 02:55 27.55405 86.67737 10932 ft 154 kts
2026-04-23 02:55 27.56452 86.67928 10824 ft 155 kts
2026-04-23 02:55 27.57516 86.68122 10663 ft 154 kts
2026-04-23 02:56 27.58583 86.68315 10507 ft 155 kts
2026-04-23 02:56 27.59647 86.68507 10347 ft 155 kts
2026-04-23 02:56 27.60709 86.68702 10188 ft 154 kts
2026-04-23 02:56 27.61754 86.68890 10021 ft 150 kts
2026-04-23 02:57 27.62765 86.69075 9856 ft 142 kts
2026-04-23 02:57 27.63391 86.69190 9844 ft 134 kts
2026-04-23 02:57 27.64283 86.69353 9847 ft 126 kts
2026-04-23 02:57 27.65130 86.69510 9846 ft 122 kts 10°
2026-04-23 02:58 27.65965 86.69707 9849 ft 122 kts 12°
2026-04-23 02:58 27.66788 86.70025 9730 ft 129 kts 29°
2026-04-23 02:58 27.67465 86.70723 9558 ft 135 kts 52°
2026-04-23 02:58 27.67981 86.71610 9398 ft 132 kts 59°
2026-04-23 02:59 27.68387 86.72372 9218 ft 96 kts 61°
2026-04-23 02:59 27.68643 86.72862 9302 ft 38 kts 54°
2026-04-23 02:59 27.68744 86.73075 9446 ft 25 kts 59°
2026-04-23 02:59 27.68779 86.73162 9458 ft 3 kts 120°
2026-04-23 03:00 27.68772 86.73169 9459 ft 2 kts 153°